Flag for U.S.A. Weather past 2 weeks in Orlando, Florida, U.S.A.

Now
59 °F

Sunny.


Feels Like: 57 °F
Forecast: 53 / 67 °F
Wind: 10 mph from Northwest

Location: Orlando Executive Airport

Current Time: Mar 28, 2015 at 11:17:26 AM

Latest Report: Mar 28, 2015 at 10:53 AM


Visibility: 10 mi

Pressure: 30.18 "Hg

Humidity: 36%

Dew point: 32 °F

Location of OrlandoLocation

Historic Weather in Orlando — Graph

°F

Orlando temperature yesterday

Maximum temperature yesterday: 81 °F (at 2:53 PM)
Minimum temperature yesterday: 62 °F (at 11:53 PM)
Average temperature yesterday: 70 °F

Past Weeks' High & Low Weather Summary

 TemperatureHumidityPressure
High89 °F (Mar 21, 3:53 PM)100% (Mar 25, 7:53 AM)30.24 "Hg (Mar 25, 7:53 AM)
Low53 °F (Mar 28, 7:53 AM)33% (Mar 17, 2:53 PM)29.80 "Hg (Mar 27, 2:53 PM)
Average74 °F72%30.05 "Hg
* Reported Mar 13 9:53 AM — Mar 28 9:53 AM, Orlando, Weather by CustomWeather, © 2015

Note: Actual official high and low records may vary slightly from our data, if they occured in-between our weather recording intervals... More about our weather records

Advertising

Orlando weather history for previous 24 hours

 ConditionsComfort  
Time TempWeatherWind HumidityBarometerVisibility
9:53 AM
Sat, Mar 28
57 °FSunny.12 mph42%30.17 "Hg10 mi
8:53 AM55 °FSunny.13 mph49%30.16 "Hg10 mi
7:53 AM53 °FClear.9 mph55%30.13 "Hg10 mi
6:53 AM54 °FClear.8 mph55%30.11 "Hg10 mi
5:53 AM56 °FClear.10 mph51%30.08 "Hg10 mi
4:53 AM57 °FClear.7 mph51%30.05 "Hg10 mi
3:53 AM58 °FClear.8 mph58%30.03 "Hg10 mi
2:53 AM58 °FClear.8 mph67%30.03 "Hg10 mi
1:53 AM59 °FClear.9 mph64%30.02 "Hg10 mi
12:53 AM60 °FClear.13 mph72%30.01 "Hg10 mi
11:53 PM
Fri, Mar 27
62 °FClear.15 mph73%29.98 "Hg10 mi
10:53 PM64 °FClear.16 mph70%29.94 "Hg10 mi
9:53 PM67 °FPassing clouds.14 mph81%29.91 "Hg10 mi
8:53 PM67 °FPassing clouds.14 mph87%29.87 "Hg10 mi
7:53 PM67 °FBroken clouds.14 mph87%29.84 "Hg10 mi
6:53 PM67 °FPartly sunny.12 mph85%29.82 "Hg10 mi
5:53 PM67 °FPartly sunny.9 mph85%29.83 "Hg10 mi
4:53 PM67 °FLight rain. Overcast.13 mph81%29.83 "Hg10 mi
3:56 PM71 °FLight rain. Fog.22 mph87%29.82 "Hg2 mi
2:53 PM81 °FBroken clouds.20 mph56%29.80 "Hg10 mi
1:53 PM80 °FPartly sunny.15 mph62%29.84 "Hg10 mi
12:53 PM79 °FBroken clouds.14 mph60%29.86 "Hg10 mi
11:53 AM77 °FPassing clouds.15 mph66%29.88 "Hg10 mi
Weather by CustomWeather, © 2015

See weather overviewHow to use our weather pages